When you browse on this site, cookies collect data to enhance your experience and personalize the content and advertising you see.
Visit our Privacy Policy to learn more. By continuing to use the site, you agree to this use of cookies and data.
  • In Deutschland
  • Länderverzeichnis
  • Für 7 Tage
  • Wassertemperatur
  • Wetterkarte
  • Widgets
  • user-avatar
    Anmelden

    Stündliche Wetter Ischgl

    Heute, 4 Juni, Donnerstag

    Zeit Temperatur Niederschläge Wind Luftdruck Luftfeuchtigkeit
    00:00 +3°C° 0 mm 2 m/S 566 mmHg 88%
    01:00 +2°C° 0 mm 2 m/S 566 mmHg 90%
    02:00 +2°C° 0 mm 2 m/S 565 mmHg 90%
    03:00 +2°C° 0 mm 2 m/S 565 mmHg 91%
    04:00 +2°C° 0 mm 2 m/S 565 mmHg 91%
    05:00 +2°C° 0.1 mm 2 m/S 565 mmHg 90%
    06:00 +3°C° 0.1 mm 2 m/S 565 mmHg 88%
    07:00 +4°C° 0.1 mm 2 m/S 565 mmHg 86%
    08:00 +4°C° 0.1 mm 2 m/S 565 mmHg 85%
    09:00 +5°C° 0.1 mm 2 m/S 565 mmHg 84%
    10:00 +5°C° 0.1 mm 2 m/S 566 mmHg 82%
    11:00 +6°C° 0.3 mm 2 m/S 566 mmHg 82%
    12:00 +6°C° 0.3 mm 2 m/S 566 mmHg 82%
    13:00 +5°C° 0.3 mm 3 m/S 566 mmHg 82%
    14:00 +5°C° 1 mm 2 m/S 565 mmHg 87%
    15:00 +4°C° 1 mm 2 m/S 564 mmHg 91%
    16:00 +3°C° 1 mm 2 m/S 564 mmHg 95%
    17:00 +3°C° 1 mm 2 m/S 563 mmHg 95%
    18:00 +3°C° 1 mm 1 m/S 563 mmHg 96%
    19:00 +3°C° 1 mm 1 m/S 563 mmHg 97%
    20:00 +3°C° 1.7 mm 1 m/S 562 mmHg 97%
    21:00 +2°C° 1.7 mm 1 m/S 562 mmHg 97%
    22:00 +2°C° 1.7 mm 1 m/S 562 mmHg 97%
    23:00 +2°C° 1.4 mm 1 m/S 562 mmHg 98%

    Morgen, 5 Juni, Freitag

    Zeit Temperatur Niederschläge Wind Luftdruck Luftfeuchtigkeit
    00:00 +1°C° 1.4 mm 1 m/S 562 mmHg 98%
    01:00 +1°C° 1.4 mm 1 m/S 561 mmHg 98%
    02:00 +1°C° 0.7 mm 1 m/S 561 mmHg 98%
    03:00 +1°C° 0.7 mm 1 m/S 562 mmHg 98%
    04:00 +1°C° 0.7 mm 1 m/S 562 mmHg 98%
    05:00 -1°C° 0.5 mm 2 m/S 562 mmHg 98%
    06:00 -1°C° 0.5 mm 2 m/S 562 mmHg 98%
    07:00 -1°C° 0.5 mm 2 m/S 562 mmHg 98%
    08:00 -1°C° 0.3 mm 2 m/S 563 mmHg 96%
    09:00 +1°C° 0.3 mm 2 m/S 563 mmHg 95%
    10:00 +1°C° 0.3 mm 2 m/S 563 mmHg 93%
    11:00 +2°C° 0.1 mm 2 m/S 564 mmHg 87%
    12:00 +3°C° 0.1 mm 2 m/S 565 mmHg 80%
    13:00 +4°C° 0.1 mm 2 m/S 565 mmHg 74%
    14:00 +5°C° 0.1 mm 2 m/S 565 mmHg 71%
    15:00 +5°C° 0.1 mm 2 m/S 565 mmHg 69%
    16:00 +5°C° 0.1 mm 2 m/S 566 mmHg 67%
    17:00 +6°C° 0.1 mm 1 m/S 566 mmHg 70%
    18:00 +5°C° 0.1 mm 1 m/S 566 mmHg 74%
    19:00 +5°C° 0.1 mm 1 m/S 566 mmHg 78%
    20:00 +3°C° 0 mm 1 m/S 565 mmHg 81%
    21:00 +1°C° 0 mm 2 m/S 565 mmHg 85%
    22:00 -1°C° 0 mm 2 m/S 565 mmHg 89%
    23:00 -1°C° 0 mm 2 m/S 565 mmHg 87%

    übermorgen, 6 Juni, Samstag

    Zeit Temperatur Niederschläge Wind Luftdruck Luftfeuchtigkeit
    00:00 -1°C° 0 mm 2 m/S 565 mmHg 86%
    01:00 -1°C° 0 mm 2 m/S 565 mmHg 84%
    02:00 -1°C° 0 mm 2 m/S 565 mmHg 85%
    03:00 -1°C° 0 mm 2 m/S 565 mmHg 85%
    04:00 -1°C° 0 mm 2 m/S 565 mmHg 86%
    05:00 +1°C° 0 mm 2 m/S 566 mmHg 83%
    06:00 +3°C° 0 mm 2 m/S 567 mmHg 81%
    07:00 +4°C° 0 mm 2 m/S 568 mmHg 78%
    08:00 +5°C° 0 mm 2 m/S 569 mmHg 74%
    09:00 +6°C° 0 mm 2 m/S 570 mmHg 70%
    10:00 +8°C° 0 mm 2 m/S 570 mmHg 66%
    11:00 +8°C° 0.3 mm 2 m/S 571 mmHg 66%
    12:00 +9°C° 0.3 mm 3 m/S 571 mmHg 66%
    13:00 +9°C° 0.3 mm 3 m/S 571 mmHg 66%
    14:00 +9°C° 1 mm 2 m/S 571 mmHg 72%
    15:00 +8°C° 1 mm 2 m/S 570 mmHg 78%
    16:00 +7°C° 1 mm 2 m/S 570 mmHg 84%
    17:00 +7°C° 1 mm 2 m/S 570 mmHg 88%
    18:00 +7°C° 1 mm 1 m/S 570 mmHg 91%
    19:00 +6°C° 1 mm 1 m/S 569 mmHg 94%
    20:00 +6°C° 1 mm 1 m/S 569 mmHg 95%
    21:00 +5°C° 1 mm 1 m/S 569 mmHg 96%
    22:00 +5°C° 1 mm 1 m/S 569 mmHg 97%
    23:00 +4°C° 0.1 mm 1 m/S 569 mmHg 97%

    7 Juni, Sonntag

    Zeit Temperatur Niederschläge Wind Luftdruck Luftfeuchtigkeit
    00:00 +4°C° 0.1 mm 1 m/S 569 mmHg 97%
    01:00 +4°C° 0.1 mm 1 m/S 569 mmHg 96%
    02:00 +4°C° 0.2 mm 1 m/S 569 mmHg 96%
    03:00 +4°C° 0.2 mm 1 m/S 569 mmHg 96%
    04:00 +4°C° 0.2 mm 1 m/S 569 mmHg 96%
    05:00 +4°C° 0.5 mm 1 m/S 569 mmHg 96%
    06:00 +4°C° 0.5 mm 1 m/S 569 mmHg 95%
    07:00 +5°C° 0.5 mm 1 m/S 569 mmHg 94%
    08:00 +5°C° 0.7 mm 1 m/S 570 mmHg 93%
    09:00 +6°C° 0.7 mm 1 m/S 570 mmHg 91%
    10:00 +6°C° 0.7 mm 1 m/S 571 mmHg 90%
    11:00 +6°C° 1.2 mm 1 m/S 571 mmHg 90%
    12:00 +5°C° 1.2 mm 2 m/S 571 mmHg 91%
    13:00 +5°C° 1.2 mm 2 m/S 571 mmHg 92%
    14:00 +4°C° 1.4 mm 2 m/S 570 mmHg 94%
    15:00 +3°C° 1.4 mm 2 m/S 570 mmHg 95%
    16:00 +3°C° 1.4 mm 2 m/S 570 mmHg 97%
    17:00 +2°C° 0.9 mm 2 m/S 570 mmHg 97%
    18:00 +2°C° 0.9 mm 2 m/S 570 mmHg 97%
    19:00 +1°C° 0.9 mm 2 m/S 569 mmHg 98%
    20:00 +1°C° 1.1 mm 2 m/S 569 mmHg 98%
    21:00 +1°C° 1.1 mm 2 m/S 570 mmHg 98%
    22:00 +1°C° 1.1 mm 2 m/S 570 mmHg 98%
    23:00 -1°C° 1.6 mm 2 m/S 569 mmHg 98%

    8 Juni, Montag

    Zeit Temperatur Niederschläge Wind Luftdruck Luftfeuchtigkeit
    00:00 -1°C° 1.6 mm 2 m/S 569 mmHg 98%
    01:00 +1°C° 1.6 mm 1 m/S 569 mmHg 99%
    02:00 -1°C° 1.5 mm 2 m/S 569 mmHg 99%
    03:00 -2°C° 1.5 mm 2 m/S 569 mmHg 99%
    04:00 -2°C° 1.5 mm 2 m/S 568 mmHg 99%
    05:00 -2°C° 0.8 mm 2 m/S 569 mmHg 98%
    06:00 -2°C° 0.8 mm 2 m/S 569 mmHg 98%
    07:00 -2°C° 0.8 mm 2 m/S 569 mmHg 98%
    08:00 -1°C° 0.4 mm 2 m/S 569 mmHg 97%
    09:00 -1°C° 0.4 mm 2 m/S 569 mmHg 96%
    10:00 -1°C° 0.4 mm 2 m/S 569 mmHg 95%
    11:00 +1°C° 0.4 mm 2 m/S 569 mmHg 94%
    12:00 +2°C° 0.4 mm 1 m/S 570 mmHg 93%
    13:00 +2°C° 0.4 mm 1 m/S 570 mmHg 93%
    14:00 +2°C° 0.7 mm 1 m/S 570 mmHg 93%
    15:00 +2°C° 0.7 mm 1 m/S 569 mmHg 93%
    16:00 +2°C° 0.7 mm 1 m/S 569 mmHg 93%
    17:00 +2°C° 0.6 mm 1 m/S 569 mmHg 94%
    18:00 +2°C° 0.6 mm 1 m/S 570 mmHg 94%
    19:00 +2°C° 0.6 mm 1 m/S 570 mmHg 95%
    20:00 +1°C° 0.3 mm 1 m/S 570 mmHg 95%
    21:00 +1°C° 0.3 mm 1 m/S 570 mmHg 96%
    22:00 +1°C° 0.3 mm 1 m/S 570 mmHg 96%
    23:00 0°C° 0.1 mm 1 m/S 570 mmHg 96%

    9 Juni, Dienstag

    Zeit Temperatur Niederschläge Wind Luftdruck Luftfeuchtigkeit
    00:00 0°C° 0.1 mm 1 m/S 570 mmHg 96%
    01:00 -1°C° 0.1 mm 1 m/S 570 mmHg 95%
    02:00 -1°C° 0 mm 1 m/S 570 mmHg 96%
    03:00 -1°C° 0 mm 1 m/S 570 mmHg 96%
    04:00 -1°C° 0 mm 1 m/S 570 mmHg 97%
    05:00 0°C° 0.2 mm 1 m/S 570 mmHg 97%
    06:00 0°C° 0.2 mm 1 m/S 571 mmHg 96%
    07:00 -1°C° 0.2 mm 2 m/S 571 mmHg 96%
    08:00 -1°C° 0.2 mm 2 m/S 571 mmHg 94%
    09:00 +1°C° 0.2 mm 2 m/S 572 mmHg 93%
    10:00 +1°C° 0.2 mm 2 m/S 572 mmHg 92%
    11:00 +2°C° 0.2 mm 2 m/S 572 mmHg 88%
    12:00 +3°C° 0.2 mm 2 m/S 573 mmHg 85%
    13:00 +4°C° 0.2 mm 2 m/S 573 mmHg 82%
    14:00 +4°C° 0.4 mm 2 m/S 573 mmHg 81%
    15:00 +4°C° 0.4 mm 2 m/S 573 mmHg 80%
    16:00 +4°C° 0.4 mm 2 m/S 573 mmHg 80%
    17:00 +4°C° 0.3 mm 2 m/S 573 mmHg 83%
    18:00 +3°C° 0.3 mm 2 m/S 573 mmHg 86%
    19:00 +3°C° 0.3 mm 2 m/S 573 mmHg 89%
    20:00 +2°C° 0.1 mm 1 m/S 572 mmHg 91%
    21:00 +1°C° 0.1 mm 1 m/S 572 mmHg 93%
    22:00 0°C° 0.1 mm 1 m/S 572 mmHg 96%
    23:00 0°C° 0.1 mm 1 m/S 572 mmHg 96%
    Mehr zeigen